Dewpoint
68 69 70 70 69 70 69 69 68 68 67 68 68 68 68 68 67 67 66 65 64 62 60 61 62 62 61 60 60 61 62 62 62 60 59 57 58 58 60 60 60 58 58
68 69 70 70 69 69 69 68 68 67 67 67 67 68 68 67 66 66 65 64 63 60 59 60 62 61 61 61 62 61 60 61 60 58 57 57 57 57 58 59 59 60 60
64 68 69 69 69 68 68 68 67 67 66 67 68 68 68 67 66 65 64 63 61 59 57 60 60 60 60 59 59 60 58 58 58 58 57 56 56 56 56 55 59 60 60
63 63 66 64 64 63 67 67 67 67 66 67 68 68 67 66 65 64 63 62 61 58 55 58 59 59 57 57 59 59 57 56 56 55 54 54 54 55 55 55 58 58 58
61 62 63 64 61 63 67 67 67 67 66 67 68 68 67 65 64 64 63 62 60 57 55 58 58 56 55 58 58 58 56 55 54 53 53 53 53 54 54 55 55 55 53
63 63 61 62 60 64 66 67 67 66 67 68 68 67 66 65 65 64 63 61 59 57 55 56 56 55 55 59 58 57 56 54 52 52 53 53 52 53 53 54 53 53 53
64 64 66 62 62 62 62 63 67 66 67 68 68 66 65 65 64 63 62 61 59 57 54 53 54 54 54 58 57 55 54 53 51 51 52 52 52 52 52 53 52 52 51
61 63 64 63 63 62 60 62 66 66 67 67 67 65 65 65 64 63 62 61 60 58 56 53 53 53 53 56 56 54 53 52 50 50 51 52 52 52 52 52 52 51 51
60 61 62 62 61 60 59 62 64 63 66 67 66 65 65 64 63 62 62 61 59 57 55 52 49 49 49 51 55 54 53 51 50 50 50 51 52 51 51 51 51 50 50
58 59 59 59 60 59 59 59 60 59 62 65 65 65 64 63 63 62 61 60 59 56 53 49 45 45 45 51 56 54 53 51 49 50 50 51 51 51 50 50 50 49 48
57 57 59 59 59 58 58 59 58 59 59 64 64 63 62 62 61 59 60 60 58 56 52 46 47 42 40 49 54 53 51 50 50 51 52 52 51 50 49 48 48 48 48
55 56 57 57 57 57 57 57 57 58 60 61 61 60 60 59 59 59 60 59 57 55 50 45 45 44 40 38 43 49 49 50 51 51 52 52 50 49 48 47 47 46 47
55 55 56 57 57 55 55 54 57 59 60 59 58 59 59 59 59 58 57 57 55 51 47 42 42 43 37 36 39 45 48 50 50 52 54 52 50 49 48 46 46 46 44
55 55 56 56 56 55 54 54 57 58 59 58 58 58 58 57 55 54 53 50 47 45 42 43 43 39 37 36 35 40 44 46 48 51 54 53 51 50 49 47 45 44 43
54 56 56 56 54 55 55 54 56 59 57 56 58 57 56 54 53 52 50 46 44 42 45 45 40 38 37 35 34 34 35 38 43 47 51 53 52 50 49 48 47 46 43
55 56 57 56 55 55 56 58 58 57 57 56 58 57 55 53 52 50 48 46 45 43 48 43 41 38 37 35 34 34 37 39 38 41 48 51 52 52 50 48 45 42 43
55 56 56 57 57 57 57 58 57 55 57 56 57 57 55 53 52 52 49 49 48 47 49 44 43 40 38 36 34 33 37 42 41 41 44 49 51 49 48 45 44 44 42
55 56 56 57 57 56 55 56 56 56 57 56 57 57 56 53 53 53 50 50 50 51 49 46 44 42 39 37 35 35 33 36 42 42 44 47 49 48 48 47 45 43 37
55 55 56 56 55 54 53 54 55 55 56 56 57 57 56 54 55 54 52 52 52 51 50 47 45 43 40 39 36 35 35 34 33 39 43 46 46 46 47 48 46 41 37
54 55 56 54 54 54 54 53 53 53 54 55 56 57 56 57 56 54 53 53 52 51 49 46 44 45 42 40 37 36 36 35 33 34 41 44 45 45 45 45 44 39 39
53 54 54 53 54 54 51 51 51 51 53 53 55 55 56 57 56 55 54 54 52 50 48 46 45 44 45 42 39 39 39 39 36 36 35 39 40 37 42 41 41 36 40
53 53 52 53 53 54 52 49 51 51 52 53 54 55 56 56 57 56 55 54 51 50 49 48 47 46 46 44 39 40 38 40 41 39 37 35 35 35 38 38 37 35 36
52 52 50 52 52 52 53 49 51 52 51 52 51 53 56 56 56 56 56 55 53 51 50 49 48 46 45 46 44 42 40 39 39 40 39 39 38 37 36 36 36 35 35
50 50 49 49 48 51 53 49 50 47 49 49 51 51 54 57 57 57 57 56 54 53 51 51 49 48 47 46 47 43 43 42 39 37 37 38 40 39 38 36 36 36 35
48 47 46 47 48 50 53 50 51 51 52 51 51 50 52 57 58 58 58 57 56 55 53 53 53 50 49 48 47 44 43 44 44 41 40 38 37 37 37 37 36 36 36
44 45 46 46 48 50 53 52 51 50 50 50 51 50 52 57 58 59 59 58 58 56 54 54 53 52 51 50 47 45 45 44 43 43 41 40 36 32 32 32 35 37 37
Wind_Speed
12 18 16 13 34 9 16 10 18 23 25 29 31 31 33 33 34 32 31 31 29 29 30 29 28 30 30 30 29 28 26 26 25 25 25 25 25 24 25 25 24 21 23
7 16 23 23 26 18 16 13 17 21 24 28 30 32 32 33 33 33 31 30 29 29 29 29 30 30 28 28 26 28 26 25 25 23 23 25 24 23 23 24 23 23 25
6 4 16 24 29 20 4 14 20 22 26 28 29 32 32 32 32 31 30 29 28 29 30 30 29 27 25 23 17 18 26 24 24 24 21 16 19 23 22 23 22 26 26
6 6 11 18 22 23 15 14 24 26 28 29 30 33 35 34 33 33 30 28 27 27 29 28 27 25 23 21 22 30 28 26 24 23 17 15 18 22 21 21 21 23 25
14 10 11 14 8 27 31 25 24 29 31 29 31 32 33 32 34 32 31 27 26 26 27 26 25 23 21 21 26 27 28 27 24 21 19 16 16 20 21 22 21 23 22
14 12 22 16 6 21 30 30 24 31 33 32 32 32 33 32 32 30 29 27 25 25 25 24 22 22 24 25 27 26 26 27 22 19 17 19 16 21 21 22 23 23 23
14 15 15 25 32 27 24 22 31 30 33 32 36 35 32 31 31 29 28 26 25 23 23 22 21 22 25 25 27 26 25 24 21 18 18 15 18 21 21 23 23 23 22
13 13 22 26 18 11 28 7 32 27 36 28 35 35 33 31 29 28 26 24 23 21 20 20 20 22 22 25 25 26 23 22 20 19 16 15 21 21 21 22 23 22 22
15 14 13 15 21 22 29 24 32 21 22 32 33 32 30 29 28 27 26 24 23 20 19 18 19 21 21 22 23 24 22 19 18 15 14 13 20 20 20 20 22 21 21
16 13 10 11 17 15 23 39 27 22 16 27 34 29 27 27 26 26 25 23 21 19 17 17 18 20 22 24 27 25 21 18 18 16 14 14 18 19 19 19 19 19 19
15 13 11 11 18 21 25 33 34 23 16 22 26 29 24 19 21 19 22 22 20 17 16 17 17 18 20 25 24 24 18 13 15 13 12 17 17 17 17 17 17 17 17
14 12 12 15 20 23 22 24 25 21 8 14 17 17 15 15 16 18 21 22 19 16 15 17 17 14 15 18 15 18 14 14 15 15 13 16 15 16 15 16 16 14 14
13 12 11 14 17 20 20 21 20 17 12 9 16 16 17 15 14 14 15 14 15 16 12 12 11 10 12 15 16 16 15 14 13 11 14 15 15 14 14 13 13 13 12
12 14 11 12 13 18 18 17 21 20 15 13 14 15 17 14 12 13 14 16 15 15 13 11 12 12 12 13 17 16 15 14 13 12 13 15 14 13 11 11 10 10 9
14 13 14 14 16 15 18 18 16 13 16 16 15 12 14 14 14 15 16 16 15 15 12 12 12 11 11 11 12 14 13 12 12 11 10 14 14 12 11 10 9 8 6
14 13 12 15 17 18 17 17 13 15 15 19 15 14 14 13 16 16 16 16 16 15 12 13 13 12 10 10 8 10 10 11 11 11 10 10 14 13 13 11 10 7 6
12 12 17 14 15 15 16 16 14 16 15 18 16 17 17 16 17 16 17 15 15 14 13 12 10 10 10 8 10 8 11 13 11 11 11 10 10 12 11 10 9 8 5
14 12 15 13 16 16 16 16 11 13 14 16 15 16 17 16 16 15 17 17 14 13 14 14 13 10 10 10 10 9 9 12 13 12 10 9 10 10 12 13 11 8 6
15 13 11 15 16 17 13 9 9 12 12 14 15 15 17 17 18 17 16 15 14 16 15 14 10 10 12 10 10 10 12 12 13 11 13 13 14 13 11 12 12 10 8
17 17 12 15 16 17 12 9 7 7 11 15 17 15 20 18 19 17 16 16 17 16 15 13 15 11 9 13 12 12 13 15 12 13 16 15 16 15 14 13 12 11 11
16 16 15 19 19 16 18 15 12 13 13 14 16 18 19 18 18 16 17 16 16 18 19 18 12 14 13 8 6 5 6 8 12 13 13 15 16 17 17 16 15 12 11
20 17 16 19 19 16 18 16 11 13 12 15 16 17 19 19 17 18 19 19 19 17 18 18 15 9 10 10 7 3 5 5 11 14 13 16 18 14 16 16 15 16 14
22 21 20 22 20 19 16 14 11 11 13 16 17 17 17 18 20 19 20 17 18 15 16 14 14 15 14 7 4 4 1 9 3 1 10 10 11 12 13 16 17 17 16
25 21 21 24 23 21 17 18 17 20 18 16 13 13 17 19 19 19 18 18 18 17 17 18 16 15 12 12 6 10 7 3 2 2 0 1 8 10 14 12 14 17 18
25 27 26 25 25 23 20 21 19 18 16 15 15 18 18 17 19 19 19 18 18 17 17 18 13 14 15 11 12 7 6 4 6 4 4 4 4 5 4 8 12 11 13
26 27 25 25 26 23 21 24 24 24 19 19 19 20 19 15 17 20 19 19 18 16 17 14 15 16 16 12 12 14 13 8 8 7 8 8 10 8 6 5 8 14 16
Wind_Direction
144 142 132 118 115 105 105 103 113 114 114 113 112 116 117 118 117 115 112 109 110 109 109 106 103 99 98 99 99 94 89 85 85 87 85 84 83 80 76 70 68 73 77
143 148 138 132 118 120 124 132 122 115 119 117 119 118 119 118 116 114 112 112 112 112 111 107 103 101 101 102 104 96 92 86 82 79 79 81 81 81 77 74 74 74 79
41 168 140 131 120 110 114 153 136 133 129 127 125 123 121 120 117 114 114 115 115 114 112 110 107 105 103 96 99 103 98 91 86 83 79 79 82 80 81 80 74 78 73
256 291 136 136 137 132 167 226 152 145 138 134 132 131 127 126 122 119 117 117 117 116 115 114 111 107 100 95 97 109 101 95 89 82 74 70 78 80 83 81 79 77 74
201 237 230 222 198 145 175 204 173 150 142 140 138 130 126 125 124 123 121 120 117 116 115 114 109 101 91 99 106 103 101 97 91 84 80 75 78 83 83 81 78 75 76
171 211 229 227 232 164 178 194 197 151 144 143 135 129 129 128 125 123 121 120 119 117 113 108 102 92 81 105 108 101 99 99 89 83 78 83 86 87 86 85 84 78 76
103 100 196 119 101 83 36 278 179 165 145 147 139 134 132 128 127 124 123 121 118 113 108 103 95 84 79 103 106 104 101 100 96 89 85 85 87 88 88 88 84 82 81
59 74 120 130 139 110 30 341 159 170 143 144 132 132 131 131 127 122 119 115 111 106 102 97 92 91 86 96 111 109 110 106 101 95 90 90 92 91 91 90 88 86 83
60 79 115 132 117 100 72 37 144 144 139 133 126 128 128 125 122 120 118 114 110 105 102 99 94 93 88 88 117 117 112 108 104 101 95 92 97 96 94 94 92 88 86
75 77 73 91 106 117 113 91 70 118 156 121 122 119 118 120 119 118 116 114 112 110 107 100 97 88 80 83 116 118 115 111 108 109 108 105 103 98 95 93 95 91 86
86 82 86 103 102 106 103 118 124 123 158 114 111 111 114 119 117 115 118 114 114 113 108 98 88 77 76 79 111 115 112 118 116 114 108 109 107 102 98 95 93 94 89
98 100 111 114 113 117 122 124 128 139 173 112 110 108 115 116 120 121 118 118 114 107 99 96 84 64 69 88 106 112 119 126 126 125 118 116 113 111 108 107 102 95 92
122 121 124 123 124 127 136 143 141 144 134 112 116 118 119 115 120 118 120 119 116 113 107 100 84 87 93 90 102 121 126 127 130 128 134 131 125 123 118 112 109 106 96
134 134 139 133 131 141 147 148 140 148 154 149 129 129 131 125 133 130 132 130 128 129 123 125 115 109 105 105 108 128 131 136 139 141 148 142 141 137 131 125 119 112 104
140 147 148 144 147 154 146 151 156 157 146 141 138 140 140 146 146 133 142 142 141 131 147 135 127 125 118 108 109 125 140 142 145 150 152 156 156 152 148 149 148 145 136
150 156 150 155 157 165 154 160 158 154 141 146 148 153 149 152 153 144 152 157 147 153 154 150 148 139 130 121 110 120 137 148 153 160 168 168 167 167 168 169 162 153 139
148 144 157 158 164 162 159 156 153 164 142 153 155 160 160 172 154 168 155 161 165 162 161 155 145 139 139 142 147 145 137 160 158 168 180 179 182 176 163 165 159 151 146
150 156 157 167 166 172 165 163 158 159 147 156 158 165 171 174 169 172 160 173 174 170 169 167 157 158 172 173 170 168 164 163 175 179 173 181 182 172 167 162 164 166 167
169 170 171 172 169 172 170 161 164 162 158 158 158 169 174 177 181 172 169 171 177 173 179 176 171 168 181 198 191 188 186 187 180 184 182 190 189 184 180 182 179 181 184
174 179 176 172 172 176 177 172 176 172 177 162 169 172 187 187 182 175 172 175 178 179 184 172 171 188 187 196 201 205 198 196 195 188 190 194 198 196 197 196 197 200 193
182 185 185 177 182 174 183 187 189 191 189 185 185 188 188 188 184 178 180 184 186 182 183 182 185 198 206 192 167 226 227 230 217 212 202 196 201 202 201 200 203 202 204
186 191 188 191 190 187 193 190 188 186 189 195 198 204 200 196 188 188 188 192 189 190 189 189 187 192 211 181 187 144 213 245 238 226 206 200 208 216 210 210 208 209 209
192 196 194 193 190 194 203 186 184 178 197 199 200 207 208 203 201 195 198 192 191 189 196 199 199 202 208 191 118 131 81 237 265 183 233 238 229 211 212 213 215 211 210
193 195 199 193 191 199 203 196 196 205 208 207 204 203 210 209 208 203 200 194 191 197 202 204 204 205 191 205 120 94 105 139 205 279 218 255 235 230 232 230 221 212 208
186 189 195 196 195 202 205 201 203 208 209 205 204 212 213 211 210 205 202 195 197 201 208 204 196 199 199 193 183 155 158 177 138 175 239 282 350 241 251 244 241 247 221
188 190 196 202 207 207 208 210 209 209 206 209 209 211 214 209 211 209 203 204 203 202 205 200 191 193 192 182 179 185 189 192 190 182 214 222 237 259 250 267 257 248 238